STARLINK-4653 (53615 NORAD) Tracking and Keplerian Element Data

This shows tracking and keplerian element data for the satellite.

Feedback or suggestion? Click here.




ElementValue
Catalog53615
NameSTARLINK-4653
Epoch Orbit130
Epoch Day248.16667824
Epoch Year2022
RAAN247.8752
Inclination53.2167
Eccentricity0.0067116
Argument of Perigee71.6344
Mean Anonmoly12.848
Mean Motion16.01959453
Decay Rate0.00604034
L11 53615U 22104AD 22248.16667824 .00604034 17804-3 77998-3 0 9990
L22 53615 53.2167 247.8752 0067116 71.6344 12.8480 16.01959453 1307



Live tracking and technical data element details for STARLINK-4653 (NORAD 53615). STARLINK-4653 can be tracked NOW for your location showing map with azimuth and elevation plus other details from your city location.







IsCatalogInMostPopularTable: catalog: 53615, numindb: 1
Update: records affected: 1



GetName: 53615 STARLINK-4653

Hit Count: updated at: Thu, 08 Dec 2022 19:54:11 GMT